RYR946 EPKK-LOWW

Flight info

Callsign RYR946
Flight time 0h 36m
Altitude 24000
Route BABKO DCT VADEX DCT BABNI DCT TUTPI P182 REKLU REKLU3W
Aircraft A320/M-SDE3FGHIRWY/LB1

Departure

Time 2026-04-22 20:35
Airport Kraków John Paul II International Airport (EPKK)

Arrival

Time 2026-04-22 21:12
Airport Vienna International Airport (LOWW)
Time Latitude Longitude Altitude Speed Heading
2026-04-22 20:01 50.07578 19.80099 800 ft 0 kts 347°
2026-04-22 20:32 50.07592 19.80093 800 ft 5 kts 347°
2026-04-22 20:32 50.07631 19.80121 800 ft 9 kts 61°
2026-04-22 20:32 50.07646 19.80228 800 ft 11 kts 78°
2026-04-22 20:32 50.07666 19.80359 800 ft 13 kts 67°
2026-04-22 20:33 50.07749 19.80369 800 ft 14 kts 347°
2026-04-22 20:33 50.07822 19.80343 800 ft 2 kts 347°
2026-04-22 20:33 50.07840 19.80337 799 ft 0 kts 348°
2026-04-22 20:34 50.07878 19.80324 796 ft 12 kts 348°
2026-04-22 20:34 50.07979 19.80289 795 ft 14 kts 342°
2026-04-22 20:34 50.08006 19.80151 795 ft 16 kts 258°
2026-04-22 20:35 50.07962 19.79839 794 ft 58 kts 257°
2026-04-22 20:35 50.07828 19.78889 797 ft 118 kts 258°
2026-04-22 20:35 50.07629 19.77436 993 ft 143 kts 257°
2026-04-22 20:35 50.07415 19.75957 1621 ft 140 kts 257°
2026-04-22 20:36 50.07208 19.74495 2178 ft 140 kts 260°
2026-04-22 20:36 50.06998 19.72987 2585 ft 149 kts 261°
2026-04-22 20:36 50.06767 19.71288 2838 ft 171 kts 262°
2026-04-22 20:36 50.06504 19.69353 3090 ft 195 kts 261°
2026-04-22 20:37 50.06204 19.67175 3434 ft 214 kts 261°
2026-04-22 20:37 50.05510 19.64994 3863 ft 242 kts 229°
2026-04-22 20:37 50.04034 19.63483 4323 ft 269 kts 201°
2026-04-22 20:37 50.02188 19.62679 5117 ft 280 kts 197°
2026-04-22 20:38 50.00274 19.61926 5959 ft 287 kts 196°
2026-04-22 20:38 49.98311 19.61175 6786 ft 294 kts 195°
2026-04-22 20:38 49.96304 19.60414 7617 ft 299 kts 195°
2026-04-22 20:38 49.94275 19.59645 8518 ft 302 kts 195°
2026-04-22 20:39 49.92234 19.58872 9435 ft 304 kts 195°
2026-04-22 20:39 49.90172 19.58090 10302 ft 306 kts 195°
2026-04-22 20:39 49.88029 19.57274 10642 ft 328 kts 194°
2026-04-22 20:39 49.85738 19.56394 10884 ft 349 kts 194°
2026-04-22 20:40 49.83348 19.55467 11466 ft 358 kts 194°
2026-04-22 20:40 49.80917 19.54523 12161 ft 362 kts 194°
2026-04-22 20:40 49.78454 19.53569 12863 ft 367 kts 194°
2026-04-22 20:40 49.75964 19.52610 13575 ft 371 kts 193°
2026-04-22 20:41 49.73440 19.51639 14248 ft 375 kts 193°
2026-04-22 20:41 49.70897 19.50666 14868 ft 379 kts 193°
2026-04-22 20:41 49.68319 19.49680 15473 ft 383 kts 192°
2026-04-22 20:41 49.65719 19.48684 16101 ft 387 kts 192°
2026-04-22 20:42 49.63142 19.47400 16702 ft 392 kts 202°
2026-04-22 20:42 49.60729 19.45392 17284 ft 398 kts 214°
2026-04-22 20:42 49.58571 19.42692 17864 ft 402 kts 225°
2026-04-22 20:42 49.56642 19.39544 18445 ft 406 kts 227°
2026-04-22 20:43 49.54697 19.36347 18963 ft 411 kts 227°
2026-04-22 20:43 49.52728 19.33129 19509 ft 415 kts 227°
2026-04-22 20:43 49.50733 19.29882 20067 ft 420 kts 226°
2026-04-22 20:43 49.48714 19.26605 20602 ft 424 kts 226°
2026-04-22 20:44 49.47365 19.24419 20954 ft 427 kts 226°
2026-04-22 20:44 49.45313 19.21094 21473 ft 431 kts 226°
2026-04-22 20:44 49.43246 19.17743 21993 ft 435 kts 226°
2026-04-22 20:44 49.41156 19.14355 22506 ft 439 kts 226°
2026-04-22 20:45 49.39044 19.10937 23015 ft 443 kts 226°
2026-04-22 20:45 49.36913 19.07496 23498 ft 447 kts 226°
2026-04-22 20:45 49.34762 19.04030 23946 ft 450 kts 226°
2026-04-22 20:45 49.32596 19.00537 24138 ft 452 kts 226°
2026-04-22 20:46 49.28268 18.93586 24203 ft 449 kts 225°
2026-04-22 20:46 49.26114 18.90126 24201 ft 449 kts 226°
2026-04-22 20:46 49.24157 18.86412 24201 ft 449 kts 235°
2026-04-22 20:47 49.22400 18.82466 24198 ft 449 kts 236°
2026-04-22 20:47 49.20632 18.78518 24200 ft 449 kts 236°
2026-04-22 20:47 49.18860 18.74580 24201 ft 449 kts 235°
2026-04-22 20:47 49.17082 18.70649 24205 ft 449 kts 235°
2026-04-22 20:48 49.15305 18.66722 24204 ft 449 kts 235°
2026-04-22 20:48 49.13532 18.62798 24206 ft 449 kts 235°
2026-04-22 20:48 49.11757 18.58869 24218 ft 450 kts 235°
2026-04-22 20:48 49.09979 18.54940 24217 ft 450 kts 235°
2026-04-22 20:49 49.08202 18.51016 24219 ft 450 kts 235°
2026-04-22 20:49 49.06447 18.47150 24221 ft 450 kts 235°
2026-04-22 20:49 49.04662 18.43235 24221 ft 450 kts 235°
2026-04-22 20:49 49.02874 18.39325 24222 ft 450 kts 235°
2026-04-22 20:50 49.01085 18.35414 24223 ft 450 kts 235°
2026-04-22 20:50 48.99295 18.31505 24207 ft 450 kts 234°
2026-04-22 20:50 48.97513 18.27600 24212 ft 450 kts 236°
2026-04-22 20:50 48.95961 18.23477 24220 ft 449 kts 245°
2026-04-22 20:51 48.94720 18.19117 24225 ft 449 kts 248°
2026-04-22 20:51 48.93494 18.14751 24225 ft 449 kts 248°
2026-04-22 20:51 48.92260 18.10391 24224 ft 449 kts 248°
2026-04-22 20:51 48.91019 18.06029 24222 ft 449 kts 247°
2026-04-22 20:52 48.89778 18.01679 24220 ft 449 kts 247°
2026-04-22 20:52 48.88535 17.97332 24217 ft 449 kts 247°
2026-04-22 20:52 48.87290 17.92977 24217 ft 449 kts 247°
2026-04-22 20:52 48.86047 17.88630 24216 ft 449 kts 247°
2026-04-22 20:53 48.84804 17.84286 24214 ft 449 kts 247°
2026-04-22 20:53 48.83567 17.79940 24220 ft 449 kts 248°
2026-04-22 20:53 48.82334 17.75589 24220 ft 449 kts 248°
2026-04-22 20:53 48.81106 17.71243 24224 ft 449 kts 248°
2026-04-22 20:54 48.79875 17.66889 24224 ft 449 kts 248°
2026-04-22 20:54 48.78644 17.62547 24222 ft 449 kts 247°
2026-04-22 20:54 48.77407 17.58199 24220 ft 449 kts 247°
2026-04-22 20:54 48.76172 17.53875 24135 ft 445 kts 247°
2026-04-22 20:55 48.74951 17.49608 23890 ft 436 kts 247°
2026-04-22 20:55 48.73750 17.45425 23627 ft 430 kts 247°
2026-04-22 20:55 48.72560 17.41297 23370 ft 427 kts 247°
2026-04-22 20:55 48.71375 17.37190 23082 ft 424 kts 247°
2026-04-22 20:56 48.70195 17.33109 22798 ft 422 kts 247°
2026-04-22 20:56 48.69028 17.29080 22457 ft 416 kts 248°
2026-04-22 20:56 48.67871 17.25079 22009 ft 413 kts 248°
2026-04-22 20:56 48.66727 17.21118 21555 ft 410 kts 248°
2026-04-22 20:57 48.65586 17.17175 21106 ft 407 kts 248°
2026-04-22 20:57 48.64450 17.13264 20618 ft 405 kts 248°
2026-04-22 20:57 48.63317 17.09380 20158 ft 403 kts 248°
2026-04-22 20:57 48.62186 17.05517 19683 ft 400 kts 248°
2026-04-22 20:58 48.61056 17.01671 19107 ft 401 kts 248°
2026-04-22 20:58 48.59931 16.97834 18707 ft 397 kts 248°
2026-04-22 20:58 48.59002 16.93945 18285 ft 389 kts 259°
2026-04-22 20:58 48.58564 16.89993 18094 ft 378 kts 269°
2026-04-22 20:59 48.58351 16.86037 17636 ft 376 kts 269°
2026-04-22 20:59 48.58087 16.82140 17373 ft 373 kts 262°
2026-04-22 20:59 48.57204 16.78445 17105 ft 380 kts 242°
2026-04-22 20:59 48.55511 16.75220 16826 ft 403 kts 221°
2026-04-22 21:00 48.53132 16.72998 16421 ft 404 kts 199°
2026-04-22 21:00 48.50414 16.72045 16044 ft 399 kts 182°
2026-04-22 21:00 48.47652 16.71920 15626 ft 396 kts 178°
2026-04-22 21:00 48.44908 16.71849 15079 ft 392 kts 179°
2026-04-22 21:01 48.42190 16.71786 14536 ft 389 kts 179°
2026-04-22 21:01 48.39500 16.71729 14011 ft 385 kts 179°
2026-04-22 21:01 48.36836 16.71672 13407 ft 382 kts 179°
2026-04-22 21:01 48.34187 16.71616 12828 ft 378 kts 179°
2026-04-22 21:02 48.31566 16.71563 12256 ft 375 kts 180°
2026-04-22 21:02 48.28967 16.71511 11705 ft 372 kts 180°
2026-04-22 21:02 48.26435 16.71458 11359 ft 364 kts 180°
2026-04-22 21:02 48.23902 16.71404 10973 ft 356 kts 180°
2026-04-22 21:03 48.21469 16.71353 10526 ft 353 kts 180°
2026-04-22 21:03 48.19024 16.71297 10063 ft 350 kts 180°
2026-04-22 21:03 48.16601 16.71241 9552 ft 347 kts 180°
2026-04-22 21:03 48.14199 16.71185 9117 ft 343 kts 181°
2026-04-22 21:04 48.11831 16.71150 8722 ft 338 kts 177°
2026-04-22 21:04 48.09539 16.71725 8332 ft 332 kts 163°
2026-04-22 21:04 48.07359 16.72633 7933 ft 317 kts 163°
2026-04-22 21:04 48.05247 16.73190 7555 ft 302 kts 176°
2026-04-22 21:05 48.03187 16.73389 7170 ft 291 kts 175°
2026-04-22 21:05 48.01205 16.73606 6798 ft 281 kts 175°
2026-04-22 21:05 47.99278 16.73823 6417 ft 273 kts 175°
2026-04-22 21:05 47.97412 16.74018 6021 ft 265 kts 180°
2026-04-22 21:06 47.95628 16.73664 5628 ft 254 kts 196°
2026-04-22 21:06 47.93938 16.73023 5253 ft 248 kts 195°
2026-04-22 21:06 47.92291 16.72379 4865 ft 242 kts 203°
2026-04-22 21:06 47.90969 16.70996 4457 ft 228 kts 238°
2026-04-22 21:07 47.90456 16.68895 4167 ft 209 kts 282°
2026-04-22 21:07 47.91011 16.67170 4174 ft 173 kts 328°
2026-04-22 21:07 47.92067 16.66387 4042 ft 168 kts 341°
2026-04-22 21:07 47.93165 16.65811 3829 ft 166 kts 344°
2026-04-22 21:08 47.94253 16.65312 3615 ft 160 kts 346°
2026-04-22 21:08 47.95304 16.64855 3404 ft 154 kts 346°
2026-04-22 21:08 47.96320 16.64422 3197 ft 150 kts 346°
2026-04-22 21:08 47.97318 16.64000 2990 ft 147 kts 346°
2026-04-22 21:09 47.98293 16.63589 2797 ft 145 kts 346°
2026-04-22 21:09 47.99262 16.63181 2598 ft 144 kts 347°
2026-04-22 21:09 48.00221 16.62778 2401 ft 143 kts 346°
2026-04-22 21:09 48.01170 16.62378 2202 ft 140 kts 346°
2026-04-22 21:10 48.02090 16.61990 2021 ft 136 kts 346°
2026-04-22 21:10 48.03000 16.61611 1827 ft 136 kts 346°
2026-04-22 21:10 48.03910 16.61231 1631 ft 136 kts 346°
2026-04-22 21:10 48.04819 16.60857 1406 ft 135 kts 345°
2026-04-22 21:11 48.05725 16.60483 1205 ft 135 kts 343°
2026-04-22 21:11 48.06621 16.60090 1070 ft 133 kts 343°
2026-04-22 21:11 48.07520 16.59707 880 ft 133 kts 343°
2026-04-22 21:11 48.08409 16.59332 725 ft 133 kts 342°
2026-04-22 21:12 48.09293 16.58948 614 ft 127 kts 343°
2026-04-22 21:12 48.09987 16.58659 614 ft 79 kts 343°
2026-04-22 21:12 48.10353 16.58506 619 ft 34 kts 345°
2026-04-22 21:12 48.10582 16.58408 622 ft 34 kts 342°
2026-04-22 21:13 48.10779 16.58211 609 ft 35 kts 315°
2026-04-22 21:13 48.10941 16.57958 616 ft 33 kts 314°
2026-04-22 21:13 48.11073 16.57782 611 ft 20 kts 337°
2026-04-22 21:13 48.11179 16.57646 619 ft 23 kts 296°
2026-04-22 21:14 48.11255 16.57419 617 ft 26 kts 295°
2026-04-22 21:14 48.11335 16.57170 617 ft 28 kts 296°
2026-04-22 21:14 48.11422 16.56908 611 ft 29 kts 296°
2026-04-22 21:14 48.11513 16.56626 613 ft 31 kts 295°
2026-04-22 21:15 48.11608 16.56330 616 ft 32 kts 296°
2026-04-22 21:15 48.11709 16.56024 614 ft 31 kts 295°
2026-04-22 21:15 48.11763 16.55855 620 ft 2 kts 296°
2026-04-22 21:15 48.11765 16.55847 618 ft 0 kts 296°
2026-04-22 21:16 48.11766 16.55845 617 ft 2 kts 296°
2026-04-22 21:16 48.11787 16.55781 609 ft 11 kts 296°
2026-04-22 21:16 48.11832 16.55644 609 ft 17 kts 296°
2026-04-22 21:16 48.11888 16.55476 611 ft 19 kts 302°
2026-04-22 21:17 48.11996 16.55497 615 ft 18 kts 26°
2026-04-22 21:17 48.12086 16.55562 609 ft 9 kts 26°
2026-04-22 21:17 48.12093 16.55644 609 ft 4 kts 117°
2026-04-22 21:17 48.12086 16.55664 614 ft 2 kts 116°
2026-04-22 21:18 48.12086 16.55665 613 ft 0 kts 116°